Lid_Strength_Index
1 1 1 1 1 2 2 2 2 1 1 1 2 2 2 3 3 4 3 3 3 2 1 1 0 -0 1 0 0 1 1 1 3 2 1 0 1 2 1 2 3 4 5
1 1 1 1 1 2 2 2 1 1 1 1 2 2 3 3 4 4 4 4 4 4 3 2 1 0 1 1 1 1 1 0 2 3 1 2 2 2 2 4 4 5 5
1 1 1 2 2 2 2 2 1 1 2 2 2 3 4 4 4 3 4 4 4 3 3 3 2 1 1 1 1 1 1 1 1 2 3 2 2 2 3 4 5 6 6
1 2 2 2 2 3 3 2 2 2 2 2 3 3 3 3 3 3 4 4 3 3 2 3 3 2 1 1 1 1 1 1 1 2 2 3 3 3 4 6 8 7 8
1 2 2 2 3 3 3 3 2 2 3 3 4 3 3 3 4 3 3 4 4 4 3 3 3 2 2 1 1 1 1 2 2 2 3 3 3 4 7 6 8 8 8
1 2 3 3 3 3 3 3 3 4 4 5 4 4 4 3 4 5 4 3 4 4 5 4 2 3 3 3 3 2 2 1 2 2 3 4 3 4 6 7 9 10 11
2 2 3 3 4 4 4 4 5 6 6 6 5 5 4 3 5 6 6 4 4 5 5 4 4 3 3 3 3 3 3 5 4 1 3 3 4 4 5 7 8 8 7
3 3 3 3 4 4 5 6 6 6 6 6 6 5 5 4 6 7 6 4 5 5 4 5 5 4 3 3 2 1 1 0 1 1 1 1 1 3 5 6 7 6 5
3 4 3 4 4 5 6 7 7 7 7 7 6 5 5 4 6 7 6 5 6 6 4 4 4 4 5 6 3 2 2 1 1 3 3 5 6 6 6 6 7 8 9
4 3 4 4 6 6 7 7 7 7 7 6 6 5 6 5 6 8 7 7 7 6 5 5 5 5 6 7 5 3 3 2 1 1 1 4 6 6 6 5 5 8 9
3 4 4 6 6 7 7 7 7 7 7 7 7 6 6 5 5 8 9 8 8 8 9 9 6 7 8 7 7 3 4 1 2 1 1 1 3 4 4 4 4 6 8
4 4 5 7 7 8 8 8 8 8 8 8 8 7 6 5 7 9 10 11 11 11 11 10 9 9 10 10 8 7 7 6 1 2 2 3 4 4 4 4 4 5 5
4 7 7 7 8 8 8 9 8 8 9 9 9 9 8 8 8 10 11 12 12 12 11 11 11 11 10 10 10 9 8 3 2 3 3 3 4 4 4 4 4 5 4
7 8 8 8 7 7 8 8 9 9 10 10 10 10 11 10 11 11 11 13 13 13 12 13 12 11 10 8 7 8 5 3 2 3 3 2 4 5 5 4 6 6 7
8 8 7 7 7 8 7 8 9 9 10 11 11 11 13 13 11 12 14 14 14 13 13 12 8 11 8 6 4 5 4 2 2 2 2 4 5 5 5 5 6 8 9
8 8 7 8 8 8 9 9 9 11 11 12 11 12 12 12 12 14 15 14 14 14 9 5 6 5 5 3 3 3 2 3 3 2 3 4 6 6 6 6 7 8 10
7 7 8 8 9 9 9 10 11 10 11 11 11 12 12 13 13 14 14 14 13 10 5 5 5 4 3 3 3 2 3 3 2 3 4 5 6 6 7 7 7 8 9
7 9 8 9 9 9 9 10 11 11 12 11 10 12 11 13 14 14 14 12 9 8 6 6 5 4 3 3 3 3 3 3 4 5 5 5 5 6 7 7 7 8 9
7 7 8 8 9 9 9 10 11 12 12 12 11 11 12 13 13 13 13 11 10 9 7 7 5 4 3 3 3 3 4 4 5 5 6 6 6 6 7 7 7 10 10
6 9 9 8 8 8 9 10 12 12 12 12 12 13 13 13 12 12 11 12 11 11 9 7 6 4 3 3 4 4 5 5 5 5 6 6 6 6 6 7 8 9 9
6 7 11 8 8 8 9 10 11 12 13 13 13 13 15 14 12 12 12 12 12 11 10 7 7 6 5 4 4 4 4 5 5 5 6 6 6 6 5 6 7 8 8
5 6 8 9 8 8 9 9 10 12 12 13 13 12 14 12 12 12 12 12 12 12 10 9 7 7 6 5 5 5 5 5 5 5 6 6 5 5 6 7 8 8 9
6 6 7 8 9 10 9 10 10 11 12 12 12 12 11 12 12 12 12 12 11 11 11 10 10 8 7 6 5 4 5 5 5 5 5 6 6 6 7 8 8 9 9
5 5 7 8 9 9 10 10 10 11 11 12 12 12 11 11 11 12 12 11 11 11 11 11 11 10 9 8 6 6 6 5 5 5 5 6 7 8 7 8 8 9 10
5 5 6 7 8 9 10 11 11 11 11 12 12 11 12 10 10 10 12 11 11 11 11 11 12 11 12 11 11 10 14 14 8 11 7 7 7 8 8 9 10 10 11
5 6 6 7 7 9 10 11 11 11 10 11 11 11 11 12 10 10 10 11 11 11 11 11 12 12 12 13 14 16 16 15 12 13 8 8 9 9 9 10 10 11 11